Regional Weather Roundup
Issued by NWS Jackson, KY

Home | Current Version | Previous Version | Graphics & Text | Print | Product List | Glossary On
Versions: 1 2 3 4 5 6 7 8 9 10 11 12 13 14 15 16 17 18 19 20 21 22 23 24 25 26 27 28 29 30 31 32 33 34 35 36 37 38 39 40 41 42 43 44 45 46 47 48 49 50
000
ASUS43 KJKL 131810
RWRJKL

EAST KENTUCKY HOURLY WEATHER ROUNDUP
NATIONAL WEATHER SERVICE JACKSON KY
100 PM EST SAT FEB 13 2016

NOTE: "FAIR" INDICATES FEW OR NO CLOUDS BELOW 12,000 FEET WITH
NO SIGNIFICANT WEATHER AND/OR OBSTRUCTIONS TO VISIBILITY.

* THESE REPORTS ARE NOT UNDER NWS QUALITY CONTROL AND MAY NOT
  REPORT WEATHER SUCH AS PRECIPITATION AND FOG.

KYZ079-080-083-085-087-088-110-112-115-119-120-131900
...EASTERN KENTUCKY...

CITY           SKY/WX    TMP DP  RH WIND       PRES   REMARKS
JACKSON        PTSUNNY   20   3  48 VRB7      30.44F WCI  11
6HR MIN TEMP:  13; 6HR MAX TEMP:  20; 6HR PCP: TRACE;

LONDON         MOSUNNY   22   6  50 NW12G18   30.46F WCI  10
6HR MIN TEMP:  16; 6HR MAX TEMP:  23;

SOMERSET*      SUNNY     23   5  46 NW9       30.51F WCI  13
MONTICELLO*    SUNNY     24   8  50 N12G20    30.51F WCI  13
6HR MIN TEMP:  16; 6HR MAX TEMP:  25;

WILLIAMSBURG*  CLEAR     25   7  46 N10       30.46F WCI  15
MIDDLESBORO*   MOSUNNY   25   9  49 NW10G16   30.45F WCI  15
6HR MIN TEMP:  19; 6HR MAX TEMP:  25;

HARLAN APT*      N/A     23   1  39 W5        30.40F WCI  17
HAZARD APT*    PTCLDY     1 -13  51 N5        30.45F WCI  -8
BLACK MTN*       N/A     10   3  72 VRB9        N/A  WCI  -2
BIG SANDY*     CLOUDY    19   3  50 NW12      30.45F WCI   6
6HR MIN TEMP:  14; 6HR MAX TEMP:  20;

MOREHEAD APT*  MOCLDY    18   1  49 N8        30.52F WCI   7
$$

KYZ035-036-041-042-044-050-067-078-099-131900
...CENTRAL KENTUCKY...

CITY           SKY/WX    TMP DP  RH WIND       PRES   REMARKS
MT STERLING*   CLOUDY    19   5  53 NW8       30.52F WCI   9
DANVILLE*      SUNNY     21   3  45 N8        30.52F WCI  12
RICHMOND*      MOSUNNY   19   3  49 N8        30.50F WCI   9
LEXINGTON      MOSUNNY   21   3  45 NW8       30.51F WCI  11
6HR MIN TEMP:  13; 6HR MAX TEMP:  21; 6HR PCP: TRACE;

FRANKFORT      MOSUNNY   21   1  41 N7        30.52F WCI  12
6HR MIN TEMP:  13; 6HR MAX TEMP:  22;

$$

KYZ091>093-OHZ055-061-077-WVZ005-015-034-035-042-131900
...SOUTHERN OHIO/WEST VIRGINIA...

CITY           SKY/WX    TMP DP  RH WIND       PRES   REMARKS
COVINGTON      FLURRIES  17   3  54 VRB7      30.53F WCI   8
COLUMBUS       PTSUNNY   13  -6  42 NW16      30.48F WCI  -3
DAYTON         PTSUNNY   14   2  58 W13G22    30.51S WCI   0
WILMINGTON     MOSUNNY   14  -2  49 NW8G17    30.49F WCI   3
HUNTINGTON     PTSUNNY   20  -1  40 VRB6G17   30.49F WCI  12
CHARLESTON     PTSUNNY   18  -4  37 NW17G31   30.44F WCI   3
PINEVILLE*       N/A     17   1  49 MISG      30.40S
BECKLEY        FLURRIES  13   2  61 NW15G25   30.26F WCI  -3
$$

VAZ002-007-008-TNZ017-027-036-066-071-131900
...SOUTHWEST VIRGINIA/EAST TENNESSEE...

CITY           SKY/WX    TMP DP  RH WIND       PRES   REMARKS
BRISTOL        MOSUNNY   23   5  46 NW10      30.36F WCI  12
KNOXVILLE      MOSUNNY   29   8  41 N9        30.43F WCI  20
OAK RIDGE      SUNNY     31   6  35 NW7       30.45F WCI  24
CROSSVILLE     SUNNY     25   5  42 NW13      30.40S WCI  14
NASHVILLE      MOSUNNY   29   1  30 NW8       30.55F WCI  21
$$

...KEY TO REMARKS...
VSB - VISIBILITY IN MILES
WCI - WIND CHILL INDEX
HX  - HEAT INDEX

$$




USA.gov is the U.S. government's official web portal to all federal, state and local government web resources and services.